Location: Most
(50.5133°N, 13.6207°E)
Time: 19:53:27
(UTC+01:00)

SEEDS - Pass Details

Date: 01 December 2021
Orbit: 584 x 600 km, 97.6° (Epoch: 22 January)

Event Time Altitude Azimuth Distance (km) Brightness Sun altitude
Rises 06:27:30 0° 357° (N) 2,826 ? -11.7°
Reaches altitude 10° 06:30:51 10° 328° (NNW) 1,918 ? -11.2°
Enters shadow 06:30:56 10° 327° (NNW) 1,904 ? -11.2°
